Voltar ao catálogo

CZ-6A DEB

AtivoSSO
NORAD 56245·DEBRIS·🇨🇳 China

Lançado Nov 11, 2022 de Taiyuan Satellite Launch Center

Loading…

Próximas Passagens (próximas 24 horas)

TLE

AtualizadoSource: Space-Track

Época: Sep 14, 2026, 11:34 UTC

1 56245U 22151ABM 26257.48236310  .00003499  00000-0  14977-2 0  9997
2 56245  98.8120 265.7756 0048074  41.3369 319.1432 14.24919934184595

Acompanhe CZ-6A DEB em tempo real com AllMySat

Download on the App Store